Location: Bodham
(52.9000°N, 1.1667°E)
Time: 14:46:25
(UTC+00:00)

Cosmos 2112 Rocket - Pass Details

Date: 18 October 2025
Orbit: 753 x 782 km, 74.0° (Epoch: 13 November)

Event Time Altitude Azimuth Distance (km) Brightness Sun altitude
Rises 04:38:53 0° 335° (NNW) 3,251 7.1 -17.0°
Reaches altitude 10° 04:41:20 10° 340° (NNW) 2,316 6.3 -16.6°
Maximum altitude 04:46:29 55° 58° (ENE) 916 4.7 -15.9°
Drops below altitude 10° 04:51:34 10° 137° (SE) 2,284 7.0 -15.1°
Sets 04:53:58 0° 141° (SE) 3,202 7.7 -14.7°
